CHX76 ZZZZ-EDDG

Flight info

Callsign CHX76
Flight time N/A
Altitude 1500
Route VFR
Aircraft EC45/L-DGV/C

Departure

Time N/A
Airport ZZZZ

Arrival

Time 2026-04-09 08:36
Airport Münster Osnabrück Airport (EDDG)
Time Latitude Longitude Altitude Speed Heading
2026-04-09 08:10 51.89689 8.38616 254 ft 0 kts 66°
2026-04-09 08:10 51.89689 8.38617 254 ft 0 kts 65°
2026-04-09 08:14 51.89677 8.38605 375 ft 5 kts 63°
2026-04-09 08:15 51.89459 8.38658 578 ft 71 kts 171°
2026-04-09 08:15 51.88913 8.38167 824 ft 106 kts 207°
2026-04-09 08:15 51.88237 8.37376 695 ft 132 kts 209°
2026-04-09 08:15 51.87510 8.36459 762 ft 128 kts 214°
2026-04-09 08:16 51.86873 8.35515 983 ft 122 kts 219°
2026-04-09 08:16 51.86220 8.34641 1096 ft 124 kts 204°
2026-04-09 08:16 51.85413 8.34163 1161 ft 126 kts 191°
2026-04-09 08:16 51.84565 8.33791 1155 ft 117 kts 189°
2026-04-09 08:17 51.84013 8.33179 1053 ft 84 kts 231°
2026-04-09 08:17 51.83627 8.32784 920 ft 46 kts 187°
2026-04-09 08:17 51.83374 8.32832 825 ft 31 kts 155°
2026-04-09 08:17 51.83157 8.32589 610 ft 40 kts 160°
2026-04-09 08:18 51.82937 8.32756 552 ft 37 kts 108°
2026-04-09 08:18 51.83068 8.33043 394 ft 28 kts 37°
2026-04-09 08:18 51.83141 8.33020 317 ft 13 kts 31°
2026-04-09 08:18 51.83231 8.33062 252 ft 14 kts 18°
2026-04-09 08:19 51.83259 8.33067 249 ft 0 kts 13°
2026-04-09 08:19 51.83259 8.33066 249 ft 0 kts 13°
2026-04-09 08:23 51.83258 8.33067 250 ft 3 kts 13°
2026-04-09 08:23 51.83279 8.33045 580 ft 9 kts 16°
2026-04-09 08:23 51.83455 8.32818 834 ft 62 kts 322°
2026-04-09 08:23 51.83743 8.32009 1096 ft 103 kts 297°
2026-04-09 08:24 51.84157 8.30907 1329 ft 127 kts 305°
2026-04-09 08:24 51.84755 8.29744 1440 ft 140 kts 309°
2026-04-09 08:24 51.85380 8.28556 1489 ft 137 kts 308°
2026-04-09 08:24 51.85982 8.27361 1506 ft 138 kts 308°
2026-04-09 08:25 51.86580 8.26138 1514 ft 139 kts 308°
2026-04-09 08:25 51.87160 8.24933 1512 ft 137 kts 309°
2026-04-09 08:25 51.87740 8.23718 1519 ft 136 kts 308°
2026-04-09 08:25 51.88316 8.22499 1527 ft 136 kts 308°
2026-04-09 08:26 51.88885 8.21277 1519 ft 136 kts 307°
2026-04-09 08:26 51.89454 8.20058 1513 ft 136 kts 308°
2026-04-09 08:26 51.90034 8.18837 1516 ft 137 kts 308°
2026-04-09 08:26 51.90612 8.17614 1520 ft 137 kts 308°
2026-04-09 08:27 51.91188 8.16385 1523 ft 137 kts 307°
2026-04-09 08:27 51.91763 8.15149 1516 ft 137 kts 308°
2026-04-09 08:27 51.92153 8.14320 1520 ft 137 kts 309°
2026-04-09 08:27 51.92730 8.13096 1523 ft 137 kts 308°
2026-04-09 08:28 51.93305 8.11871 1516 ft 137 kts 308°
2026-04-09 08:28 51.93880 8.10657 1516 ft 138 kts 308°
2026-04-09 08:28 51.94461 8.09421 1520 ft 137 kts 307°
2026-04-09 08:28 51.95038 8.08184 1522 ft 137 kts 307°
2026-04-09 08:29 51.95608 8.06956 1516 ft 135 kts 307°
2026-04-09 08:29 51.96179 8.05743 1514 ft 137 kts 308°
2026-04-09 08:29 51.96762 8.04517 1520 ft 137 kts 307°
2026-04-09 08:29 51.97332 8.03293 1520 ft 136 kts 307°
2026-04-09 08:30 51.97906 8.02057 1520 ft 137 kts 306°
2026-04-09 08:30 51.98475 8.00826 1520 ft 135 kts 307°
2026-04-09 08:30 51.99050 7.99600 1514 ft 138 kts 308°
2026-04-09 08:30 51.99628 7.98371 1521 ft 136 kts 307°
2026-04-09 08:31 52.00775 7.95929 1511 ft 137 kts 307°
2026-04-09 08:31 52.01352 7.94697 1517 ft 136 kts 306°
2026-04-09 08:31 52.01918 7.93475 1522 ft 135 kts 306°
2026-04-09 08:32 52.02485 7.92256 1520 ft 136 kts 307°
2026-04-09 08:32 52.03058 7.91028 1520 ft 137 kts 307°
2026-04-09 08:32 52.03638 7.89782 1518 ft 138 kts 307°
2026-04-09 08:32 52.04213 7.88546 1516 ft 137 kts 308°
2026-04-09 08:33 52.04784 7.87322 1519 ft 138 kts 307°
2026-04-09 08:33 52.05360 7.86082 1524 ft 137 kts 307°
2026-04-09 08:33 52.05933 7.84841 1517 ft 137 kts 307°
2026-04-09 08:33 52.06513 7.83607 1516 ft 138 kts 307°
2026-04-09 08:34 52.07089 7.82365 1519 ft 137 kts 307°
2026-04-09 08:34 52.07665 7.81118 1522 ft 137 kts 306°
2026-04-09 08:34 52.08236 7.79879 1514 ft 137 kts 306°
2026-04-09 08:34 52.08812 7.78635 1513 ft 139 kts 307°
2026-04-09 08:35 52.09400 7.77381 1521 ft 139 kts 306°
2026-04-09 08:35 52.09980 7.76124 1402 ft 139 kts 306°
2026-04-09 08:35 52.10556 7.74852 1282 ft 139 kts 306°
2026-04-09 08:35 52.11106 7.73584 1139 ft 135 kts 303°
2026-04-09 08:36 52.11588 7.72277 1012 ft 133 kts 300°
2026-04-09 08:36 52.11979 7.71105 904 ft 99 kts 299°
2026-04-09 08:36 52.12228 7.70253 766 ft 70 kts 298°
2026-04-09 08:36 52.12350 7.69704 626 ft 39 kts 295°
2026-04-09 08:37 52.12248 7.69302 368 ft 16 kts 269°
2026-04-09 08:37 52.12306 7.69255 241 ft 14 kts 273°
2026-04-09 08:37 52.12322 7.69224 288 ft 14 kts 273°
2026-04-09 08:37 52.12339 7.69026 163 ft 0 kts 272°
2026-04-09 08:38 52.12331 7.69021 164 ft 5 kts 268°
2026-04-09 08:38 52.12329 7.69024 163 ft 0 kts 269°
2026-04-09 08:38 52.12329 7.69027 163 ft 0 kts 268°